Location: Unspecified
(0.0000°N, 0.0000°E)
Time: 23:53:35
(UTC+00:00)

Vanguard 2 - Pass Details

Date: 01 October 2020
Orbit: 554 x 2937 km, 32.9° (Epoch: 28 October)

Event Time Altitude Azimuth Distance (km) Brightness Sun altitude
Rises 13:57:48 0° 276° (W) 3,326 11.3 57.8°
Reaches altitude 10° 14:00:12 10° 264° (W) 2,622 11.0 57.2°
Maximum altitude 14:05:43 30° 204° (SSW) 2,052 10.4 55.8°
Drops below altitude 10° 14:14:05 10° 147° (SSE) 4,050 11.2 53.7°
Sets 14:18:53 0° 138° (SE) 5,494 11.7 52.5°
